GW2622 Weather Reports


Display with metric or nautical units.
time (UTC)temp
F
wind
direction
speed
MPH
gust
MPH
rain 1hr
in
rain 24hr
in
rain mn
in
humidity
%
barometer
mb
20260506135211 45 347 2.0 3.0 0.00 0.00 0.00 61 1017.5
20260506134708 45 335 3.0 3.0 0.00 0.00 0.00 64 1017.6
20260506134203 44 327 2.0 2.0 0.00 0.00 0.00 65 1017.3
20260506133701 44 348 2.0 6.0 0.00 0.00 0.00 65 1017.3
20260506133157 44 313 2.0 5.0 0.00 0.00 0.00 64 1017.5
20260506132655 43 332 1.0 2.0 0.00 0.00 0.00 67 1017.2
20260506132151 44 316 2.0 2.0 0.00 0.00 0.00 68 1017.1
20260506131649 43 317 0.0 1.0 0.00 0.00 0.00 66 1017.2
20260506131145 43 346 3.0 3.0 0.00 0.00 0.00 68 1017.3
20260506130642 43 343 2.0 3.0 0.00 0.00 0.00 68 1017.1
20260506130140 42 331 0.0 1.0 0.00 0.00 0.00 70 1017.0
20260506125638 42 327 2.0 2.0 0.00 0.00 0.00 69 1017.1
20260506125135 42 317 3.0 3.0 0.00 0.00 0.00 68 1017.0
20260506124633 42 336 2.0 3.0 0.00 0.00 0.00 71 1017.0
20260506124131 42 304 1.0 2.0 0.00 0.00 0.00 71 1017.0
20260506123628 41 301 0.0 1.0 0.00 0.00 0.00 72 1016.9
20260506123127 41 300 1.0 2.0 0.00 0.00 0.00 73 1016.9
20260506122623 41 299 0.0 1.0 0.00 0.00 0.00 75 1016.8
20260506122121 40 300 0.0 0.0 0.00 0.00 0.00 76 1016.5
20260506121618 40 300 1.0 1.0 0.00 0.00 0.00 76 1016.4
20260506121114 39 300 0.0 1.0 0.00 0.00 0.00 77 1016.5
20260506120612 39 300 0.0 0.0 0.00 0.00 0.00 77 1016.5
20260506120109 39 300 0.0 1.0 0.00 0.00 0.00 76 1016.5
20260506115608 39 300 1.0 2.0 0.00 0.00 0.00 76 1016.4
20260506115106 39 300 1.0 1.0 0.00 0.00 0.00 76 1016.4
20260506114602 39 300 1.0 1.0 0.00 0.00 0.00 75 1016.5
20260506114101 39 303 1.0 1.0 0.00 0.00 0.00 76 1016.1
20260506113558 39 303 2.0 2.0 0.00 0.00 0.00 75 1016.2
20260506113055 39 302 1.0 3.0 0.00 0.00 0.00 76 1016.2
20260506112552 39 302 0.0 2.0 0.00 0.00 0.00 76 1016.0
20260506112049 39 299 1.0 1.0 0.00 0.00 0.00 77 1015.9
20260506111547 39 298 1.0 2.0 0.00 0.00 0.00 77 1015.9
20260506111044 39 297 0.0 1.0 0.00 0.00 0.00 75 1015.8
20260506110542 39 297 1.0 2.0 0.00 0.00 0.00 74 1015.8
20260506110039 39 297 1.0 1.0 0.00 0.00 0.00 75 1015.5
20260506105535 39 298 0.0 1.0 0.00 0.00 0.00 76 1015.8
20260506105032 39 297 1.0 1.0 0.00 0.00 0.00 75 1015.7
20260506104530 39 297 1.0 2.0 0.00 0.00 0.00 74 1015.5
20260506104028 39 299 1.0 2.0 0.00 0.00 0.00 74 1015.4
20260506103525 39 299 0.0 2.0 0.00 0.00 0.00 74 1015.4
20260506103021 39 299 0.0 1.0 0.00 0.00 0.00 74 1015.3
20260506102520 39 299 0.0 0.0 0.00 0.00 0.00 76 1015.4
20260506102017 39 299 0.0 1.0 0.00 0.00 0.00 77 1015.0
20260506101513 39 299 0.0 1.0 0.00 0.00 0.00 74 1015.1
20260506101011 39 296 0.0 1.0 0.00 0.00 0.00 74 1015.1
20260506100509 39 296 0.0 1.0 0.00 0.00 0.00 74 1015.2
20260506100007 39 296 0.0 1.0 0.00 0.00 0.00 74 1015.2
20260506095505 39 312 1.0 1.0 0.00 0.00 0.00 75 1015.0
20260506095001 39 312 0.0 1.0 0.00 0.00 0.00 75 1015.1
20260506094459 39 295 0.0 3.0 0.00 0.00 0.00 74 1015.2
20260506093956 39 298 1.0 2.0 0.00 0.00 0.00 74 1015.1
20260506093455 39 296 1.0 3.0 0.00 0.00 0.00 74 1015.1
20260506092952 39 298 3.0 3.0 0.00 0.00 0.00 74 1015.1
20260506092450 39 300 1.0 3.0 0.00 0.00 0.00 74 1015.0
20260506091946 39 306 1.0 3.0 0.00 0.00 0.00 74 1015.0
20260506091444 40 303 1.0 3.0 0.00 0.00 0.00 73 1015.0
20260506090941 40 301 1.0 2.0 0.00 0.00 0.00 72 1014.8
20260506090439 40 301 1.0 2.0 0.00 0.00 0.00 72 1014.5
20260506085935 40 301 1.0 3.0 0.00 0.00 0.00 71 1014.7
20260506085432 40 297 2.0 3.0 0.00 0.00 0.00 72 1014.6
20260506084928 40 306 2.0 3.0 0.00 0.00 0.00 71 1014.7
20260506084426 40 296 2.0 3.0 0.00 0.00 0.00 70 1014.6
20260506083921 40 306 1.0 2.0 0.00 0.00 0.00 68 1014.7
20260506083419 41 305 2.0 2.0 0.00 0.00 0.00 65 1014.4
20260506082916 41 299 1.0 1.0 0.00 0.00 0.00 63 1014.2
20260506082414 41 300 0.0 0.0 0.00 0.00 0.00 64 1014.2
20260506081909 41 299 0.0 1.0 0.00 0.00 0.00 64 1014.2
20260506081408 40 299 0.0 1.0 0.00 0.00 0.00 65 1014.2
20260506080904 40 300 0.0 1.0 0.00 0.00 0.00 65 1014.5
20260506080402 40 300 0.0 0.0 0.00 0.00 0.00 65 1014.4
20260506073345 41 300 1.0 1.0 0.00 0.00 0.00 64 1014.4
20260506072842 40 301 0.0 0.0 0.00 0.00 0.00 65 1014.2
20260506072340 40 301 0.0 0.0 0.00 0.00 0.00 66 1014.4
20260506071837 40 301 0.0 0.0 0.00 0.00 0.00 66 1014.2
20260506071335 40 301 0.0 0.0 0.00 0.00 0.00 66 1014.3
20260506070832 41 301 0.0 0.0 0.00 0.00 0.00 65 1014.4
20260506070329 41 301 0.0 0.0 0.00 0.00 0.00 65 1014.2
20260506062306 43 308 1.0 1.0 0.00 0.00 0.00 62 1014.6
20260506061802 44 302 1.0 3.0 0.00 0.00 0.00 59 1014.6
20260506061259 44 323 2.0 2.0 0.00 0.00 0.00 57 1014.5
20260506060757 44 335 0.0 1.0 0.00 0.00 0.00 58 1014.6
20260506060255 44 335 1.0 1.0 0.00 0.00 0.00 58 1014.4
20260506051226 46 336 1.0 2.0 0.00 0.00 0.00 50 1013.5
20260506050724 46 336 1.0 2.0 0.00 0.00 0.00 49 1013.5
20260506050221 46 342 2.0 3.0 0.00 0.00 0.00 49 1013.3
20260506044707 47 335 0.0 2.0 0.00 0.00 0.00 49 1013.1
20260506044203 47 336 2.0 2.0 0.00 0.00 0.00 49 1013.2
20260506043701 48 354 2.0 3.0 0.00 0.00 0.00 47 1013.4
20260506043158 48 343 3.0 3.0 0.00 0.00 0.00 46 1013.3
20260506042657 48 328 0.0 2.0 0.00 0.00 0.00 48 1013.3
20260506042155 48 321 1.0 2.0 0.00 0.00 0.00 47 1013.3
20260506041653 49 346 1.0 5.0 0.00 0.00 0.00 46 1013.1
20260506041150 49 345 4.0 7.0 0.00 0.00 0.00 45 1013.1
20260506040648 49 337 3.0 7.0 0.00 0.00 0.00 45 1013.2
20260506040144 49 4 4.0 6.0 0.00 0.00 0.00 44 1012.7
20260506035641 50 15 5.0 8.0 0.00 0.00 0.00 44 1012.9
20260506035137 50 335 9.0 13.0 0.00 0.00 0.00 43 1013.0
20260506034635 50 17 3.0 6.0 0.00 0.00 0.00 44 1013.0
20260506034132 50 318 3.0 7.0 0.00 0.00 0.00 43 1013.1
20260506033629 50 23 4.0 6.0 0.00 0.00 0.00 45 1012.8
20260506033126 50 19 4.0 9.0 0.00 0.00 0.00 44 1012.9
20260506032623 50 345 4.0 7.0 0.00 0.00 0.00 44 1012.7
20260506032120 50 357 3.0 6.0 0.00 0.00 0.00 45 1012.7
20260506031617 51 347 3.0 9.0 0.00 0.00 0.00 45 1012.7
20260506031114 50 359 5.0 7.0 0.00 0.00 0.00 44 1012.6
20260506030613 50 273 2.0 7.0 0.00 0.00 0.00 44 1012.6
20260506030109 51 307 4.0 6.0 0.00 0.00 0.00 43 1012.7
20260506025606 51 300 2.0 7.0 0.00 0.00 0.00 43 1012.4
20260506025102 51 293 3.0 5.0 0.00 0.00 0.00 43 1012.4
20260506024600 51 269 4.0 7.0 0.00 0.00 0.00 42 1012.3
20260506024056 52 302 2.0 5.0 0.00 0.00 0.00 41 1012.2
20260506023552 52 310 1.0 6.0 0.00 0.00 0.00 42 1012.1
20260506023050 52 334 2.0 2.0 0.00 0.00 0.00 41 1012.1
20260506022547 52 306 4.0 6.0 0.00 0.00 0.00 40 1012.0
20260506022044 52 299 0.0 3.0 0.00 0.00 0.00 40 1011.9
20260506021541 53 296 3.0 7.0 0.00 0.00 0.00 39 1012.0
20260506021039 53 307 4.0 6.0 0.00 0.00 0.00 39 1011.9
20260506020536 53 308 4.0 6.0 0.00 0.00 0.00 39 1011.9
20260506020033 53 312 1.0 8.0 0.00 0.00 0.00 39 1011.8
20260506015531 53 286 3.0 6.0 0.00 0.00 0.00 39 1011.9
20260506015027 53 314 5.0 6.0 0.00 0.00 0.00 39 1011.7
20260506014525 53 313 3.0 6.0 0.00 0.00 0.00 39 1011.8
20260506014021 53 305 6.0 8.0 0.00 0.00 0.00 39 1011.7
20260506013519 53 325 2.0 7.0 0.00 0.00 0.00 39 1011.7
20260506013016 54 313 5.0 6.0 0.00 0.00 0.00 39 1011.6
20260506012512 54 295 2.0 8.0 0.00 0.00 0.00 39 1011.6
20260506012009 54 319 5.0 15.0 0.00 0.00 0.00 38 1011.7
20260506011506 54 303 3.0 7.0 0.00 0.00 0.00 39 1011.6
20260506011002 54 331 3.0 7.0 0.00 0.00 0.00 38 1011.6
20260506010502 54 301 6.0 10.0 0.00 0.00 0.00 38 1011.5
20260506005957 54 277 7.0 10.0 0.00 0.00 0.00 37 1011.4
20260506005455 55 258 5.0 7.0 0.00 0.00 0.00 38 1011.3
20260506004950 55 31 6.0 8.0 0.00 0.00 0.00 37 1011.2
20260506004448 55 266 4.0 11.0 0.00 0.00 0.00 39 1011.2
20260506003944 55 313 7.0 10.0 0.00 0.00 0.00 39 1010.9
20260506003440 55 300 0.0 2.0 0.00 0.00 0.00 39 1010.9
20260506002931 55 279 6.0 8.0 0.00 0.00 0.00 39 1010.8
20260506002428 55 278 5.0 7.0 0.00 0.00 0.00 37 1010.8
20260506001923 55 315 5.0 8.0 0.00 0.00 0.00 37 1010.9
20260506001421 56 304 4.0 6.0 0.00 0.00 0.00 38 1010.8
20260506000918 56 282 3.0 5.0 0.00 0.00 0.00 38 1010.7
20260506000416 56 335 6.0 9.0 0.00 0.00 0.00 38 1010.7
20260505235912 56 305 7.0 14.0 0.00 0.00 0.00 37 1010.8
20260505235410 56 314 3.0 7.0 0.00 0.00 0.00 37 1010.9
20260505234907 56 338 6.0 10.0 0.00 0.00 0.00 36 1010.7
20260505234404 56 308 5.0 8.0 0.00 0.00 0.00 35 1010.6
20260505233901 56 253 5.0 10.0 0.00 0.00 0.00 35 1010.6
20260505233359 56 305 6.0 8.0 0.00 0.00 0.00 35 1010.7
20260505232856 57 321 3.0 9.0 0.00 0.00 0.00 36 1010.6
20260505232354 57 358 5.0 9.0 0.00 0.00 0.00 36 1010.5
20260505231850 57 316 8.0 11.0 0.00 0.00 0.00 36 1010.4
20260505231348 57 356 3.0 9.0 0.00 0.00 0.00 36 1010.5
20260505230846 57 311 1.0 9.0 0.00 0.00 0.00 35 1010.5
20260505230343 57 282 8.0 16.0 0.00 0.00 0.00 34 1010.4
20260505225839 57 302 6.0 13.0 0.00 0.00 0.00 35 1010.3
20260505225336 57 341 3.0 13.0 0.00 0.00 0.00 35 1010.2
20260505224830 57 326 8.0 11.0 0.00 0.00 0.00 35 1010.4
20260505224329 57 16 5.0 15.0 0.00 0.00 0.00 35 1010.2
20260505223826 58 10 4.0 15.0 0.00 0.00 0.00 36 1010.4
20260505223323 58 336 4.0 14.0 0.00 0.00 0.00 35 1010.3
20260505222818 58 20 5.0 11.0 0.00 0.00 0.00 34 1010.3
20260505222315 59 338 8.0 13.0 0.00 0.00 0.00 34 1010.2
20260505221812 59 6 5.0 9.0 0.00 0.00 0.00 36 1010.2
20260505221308 59 329 9.0 13.0 0.00 0.00 0.00 34 1009.9
20260505220806 59 283 7.0 15.0 0.00 0.00 0.00 36 1010.0
20260505220303 59 292 4.0 8.0 0.00 0.00 0.00 41 1009.8
20260505215801 58 256 7.0 9.0 0.00 0.00 0.00 40 1009.7
20260505215258 58 221 6.0 8.0 0.00 0.00 0.00 43 1010.0
20260505214756 58 249 5.0 7.0 0.00 0.00 0.00 41 1010.2
20260505214254 58 243 4.0 6.0 0.00 0.00 0.00 41 1009.9
20260505213751 58 284 6.0 7.0 0.00 0.00 0.00 40 1010.2
20260505213248 58 252 3.0 8.0 0.00 0.00 0.00 40 1010.3
20260505212744 58 217 6.0 7.0 0.00 0.00 0.00 43 1010.3
20260505212242 58 278 1.0 8.0 0.00 0.00 0.00 42 1010.3
20260505211738 58 246 4.0 11.0 0.00 0.00 0.00 41 1010.4
20260505211236 59 262 2.0 3.0 0.00 0.00 0.00 43 1010.4
20260505210732 58 281 1.0 5.0 0.00 0.00 0.00 43 1010.4
20260505210229 58 262 3.0 5.0 0.00 0.00 0.00 41 1010.4
20260505205726 57 298 1.0 2.0 0.00 0.00 0.00 42 1010.6
20260505205224 58 295 3.0 6.0 0.00 0.00 0.00 41 1010.5
20260505204720 58 208 4.0 6.0 0.00 0.00 0.00 42 1010.7
20260505204219 57 262 2.0 6.0 0.00 0.00 0.00 44 1010.8
20260505203715 57 263 5.0 6.0 0.00 0.00 0.00 41 1011.0
20260505203212 57 226 7.0 9.0 0.00 0.00 0.00 41 1010.9
20260505202708 57 297 2.0 2.0 0.00 0.00 0.00 43 1011.2
20260505202204 56 280 4.0 8.0 0.00 0.00 0.00 42 1011.1
20260505201701 57 313 2.0 7.0 0.00 0.00 0.00 42 1011.2
20260505201159 57 287 0.0 5.0 0.00 0.00 0.00 41 1011.2
20260505200657 57 263 1.0 5.0 0.00 0.00 0.00 42 1011.2
20260505200153 57 294 8.0 11.0 0.00 0.00 0.00 42 1011.4
20260505195649 58 282 3.0 7.0 0.00 0.00 0.00 43 1011.3
20260505195147 57 259 3.0 7.0 0.00 0.00 0.00 41 1011.3
20260505194644 57 286 6.0 9.0 0.00 0.00 0.00 42 1011.6
20260505194140 57 187 5.0 8.0 0.00 0.00 0.00 41 1011.7
20260505193636 57 291 7.0 9.0 0.00 0.00 0.00 41 1011.6
20260505193133 57 294 2.0 5.0 0.00 0.00 0.00 43 1011.7
20260505192632 58 317 5.0 8.0 0.00 0.00 0.00 41 1011.6
20260505192129 57 277 0.0 7.0 0.00 0.00 0.00 44 1011.6
20260505191628 57 250 4.0 7.0 0.00 0.00 0.00 43 1011.6
20260505191125 57 328 6.0 9.0 0.00 0.00 0.00 43 1011.6
20260505190621 58 296 5.0 9.0 0.00 0.00 0.00 41 1011.8
20260505190116 57 332 3.0 8.0 0.00 0.00 0.00 42 1011.6
20260505185613 58 323 2.0 3.0 0.00 0.00 0.00 42 1011.6
20260505185109 58 224 5.0 7.0 0.00 0.00 0.00 40 1011.7
20260505184606 57 224 2.0 10.0 0.00 0.00 0.00 42 1011.7
20260505184103 57 297 2.0 5.0 0.00 0.00 0.00 45 1011.8
20260505183559 57 7 6.0 9.0 0.00 0.00 0.00 45 1011.9
20260505183057 56 44 5.0 6.0 0.00 0.00 0.00 44 1011.8
20260505182553 56 337 1.0 5.0 0.00 0.00 0.00 48 1011.8
20260505182050 56 357 7.0 9.0 0.00 0.00 0.00 45 1011.8
20260505181547 56 321 2.0 5.0 0.00 0.00 0.00 47 1012.0
20260505181044 56 352 8.0 9.0 0.00 0.00 0.00 46 1011.9
20260505180539 57 316 3.0 3.0 0.00 0.00 0.00 47 1012.0
20260505180038 56 277 1.0 3.0 0.00 0.00 0.00 49 1012.1
20260505175537 56 251 3.0 5.0 0.00 0.00 0.00 48 1012.2
20260505175035 55 282 1.0 5.0 0.00 0.00 0.00 48 1012.2
20260505174532 55 318 4.0 7.0 0.00 0.00 0.00 49 1012.5
20260505174028 56 304 3.0 6.0 0.00 0.00 0.00 48 1012.1
20260505173525 57 280 4.0 7.0 0.00 0.00 0.00 48 1012.3
20260505173021 56 165 3.0 5.0 0.00 0.00 0.00 50 1012.1
20260505172519 54 266 4.0 9.0 0.00 0.00 0.00 49 1012.3
20260505172014 54 359 4.0 7.0 0.00 0.00 0.00 50 1012.4
20260505171505 55 306 5.0 8.0 0.00 0.00 0.00 48 1012.4
20260505171002 55 287 1.0 3.0 0.00 0.00 0.00 50 1012.4
20260505170459 55 238 7.0 8.0 0.00 0.00 0.00 46 1012.4
20260505165954 55 271 3.0 3.0 0.00 0.00 0.00 47 1012.4
20260505165450 54 342 5.0 7.0 0.00 0.00 0.00 48 1012.7
20260505164946 54 337 0.0 2.0 0.00 0.00 0.00 53 1012.7
20260505164442 54 345 5.0 6.0 0.00 0.00 0.00 51 1012.5
20260505163940 53 317 1.0 8.0 0.00 0.00 0.00 51 1012.7
20260505163439 53 356 4.0 8.0 0.00 0.00 0.00 50 1012.3
20260505162938 53 297 5.0 6.0 0.00 0.00 0.00 49 1012.4
20260505162433 53 51 4.0 6.0 0.00 0.00 0.00 50 1012.1
20260505161930 55 331 5.0 7.0 0.00 0.00 0.00 50 1012.3
20260505161427 54 243 2.0 2.0 0.00 0.00 0.00 49 1012.2
20260505160924 54 351 4.0 6.0 0.00 0.00 0.00 49 1012.3
20260505160422 53 323 2.0 3.0 0.00 0.00 0.00 50 1012.2
20260505153356 53 288 1.0 2.0 0.00 0.00 0.00 55 1012.1
20260505152852 52 305 1.0 2.0 0.00 0.00 0.00 55 1012.0
20260505152349 52 341 3.0 5.0 0.00 0.00 0.00 56 1012.0
20260505151844 53 0 1.0 2.0 0.00 0.00 0.00 57 1011.9
20260505151340 53 297 2.0 2.0 0.00 0.00 0.00 55 1012.1
20260505150831 52 288 0.0 1.0 0.00 0.00 0.00 56 1012.0
20260505150328 53 308 3.0 5.0 0.00 0.00 0.00 57 1012.0
20260505140241 50 256 1.0 2.0 0.00 0.00 0.00 63 1011.5